[[{"header":{"parameterUnit":"m.s-1","parameterCategory":2,"la1":30.2991,"la2":30.254,"lo1":-89.0895,"lo2":-89.0444,"dy":0.0017,"dx":0.0017,"nx":28,"ny":28,"refTime":"2024-02-12T03:00:00:Z","depth":"0","parameterNumber":2,"parameterNumberName":"U-component_of_CURRENTS"},"data":[0,0,0,0,0,0,0,0,0,0,0,0,0,0,0,0,0,0,0,0,0,0,0,0,0,0,0,0,0,0,0,0,0,0,0,0,0,0,0,0,0,0,0,0,0,0,0,0,0,0,0,0,0,0,0,0,0,0,0.2247,0.2247,0,0.2243,0.2243,0.2242,0.2216,0.2215,0.2215,0.2214,0.2183,0.2183,0.2182,0,0,0,0,0,0,0,0,0,0,0,0,0,0.2239,0.224,0.2247,0.2247,0.2247,0.2243,0.2243,0.2242,0.2216,0.2215,0.2215,0.2214,0.2183,0.2183,0.2182,0,0,0,0,0,0,0,0,0,0,0,0,0,0.2239,0.224,0.2247,0.2235,0.2234,0.2243,0.2243,0.2242,0.2216,0.2215,0.2215,0.2214,0.2183,0.2183,0.2182,0.2195,0,0,0.2181,0.2181,0,0,0,0,0,0,0,0,0.2239,0.2239,0.2236,0.2236,0.2234,0.223,0.2228,0.2226,0.2216,0.2221,0.2214,0.2213,0.2198,0.2196,0.2196,0.2194,0.2192,0.2181,0.218,0.218,0.218,0,0,0,0,0,0,0,0.2239,0.2239,0.2244,0.2237,0.2235,0.2231,0.223,0.2228,0.2213,0.2221,0.2219,0.2221,0.2197,0.2196,0.2195,0.2192,0.2181,0.218,0.218,0.218,0.222,0.2222,0,0,0,0,0,0,0.2242,0.2239,0.2244,0.2244,0.2236,0.2232,0.2231,0.2231,0.2213,0.221,0.2222,0.222,0.2197,0.2195,0.2193,0.2218,0.218,0.218,0.2179,0.2219,0.2221,0.2222,0,0,0,0,0,0,0.2242,0.2243,0.2245,0.2242,0.2243,0.2233,0.2234,0.2232,0.2235,0.2214,0.221,0.2228,0.2197,0.2194,0.2202,0.2216,0.218,0.2179,0.2217,0.2219,0.2221,0.2261,0,0,0,0,0,0,0.2242,0.2243,0.2248,0.2243,0.2243,0.2259,0.2235,0.2232,0.2237,0.2235,0.2218,0.2214,0.2196,0.2203,0.2202,0.2215,0.2179,0.2216,0.2218,0.2221,0.2258,0.2264,0.2269,0,0,0,0,0,0.2242,0.225,0.2249,0.2249,0.2249,0.226,0.226,0.2249,0.2239,0.2248,0.2238,0.2215,0.2218,0.2204,0.2202,0.2215,0.2214,0.2218,0.2221,0.2255,0.2263,0.2269,0,0,0,0,0,0,0.2246,0.2248,0.2246,0.2254,0.2262,0.2256,0.2261,0.2258,0.2257,0.2254,0.2231,0.2227,0.2242,0.2229,0.2214,0.2237,0.2214,0.2216,0.2241,0.2247,0.2253,0.2256,0.2178,0,0,0,0,0,0.2252,0.226,0.2263,0.2271,0.2274,0.2271,0.2275,0.2272,0.227,0.2269,0.2257,0.2251,0.2254,0.225,0.2251,0.2262,0.2259,0.2271,0.2277,0.2282,0.2285,0.2302,0.2309,0.2232,0.2232,0.2232,0,0,0.2255,0.2259,0.2263,0.2274,0.2274,0.2285,0.2271,0.2283,0.2292,0.2267,0.2275,0.2273,0.2264,0.2277,0.2282,0.2265,0.2305,0.2286,0.229,0.229,0.2306,0.2313,0.232,0.2234,0.2234,0.2234,0,0,0.2264,0.227,0.2279,0.2289,0.23,0.2302,0.2309,0.2312,0.2314,0.2328,0.2315,0.2325,0.2321,0.232,0.2318,0.2359,0.2339,0.2359,0.2383,0.24,0.2406,0.2411,0.2423,0.2429,0.2357,0.2357,0.2357,0,0.2269,0.2278,0.2285,0.2297,0.2304,0.2311,0.2322,0.2332,0.2339,0.2346,0.2336,0.2349,0.2342,0.2361,0.2374,0.2371,0.2375,0.2353,0.2406,0.2411,0.2416,0.2427,0.2433,0.2359,0.2359,0.2358,0.2358,0,0.2284,0.2293,0.23,0.2317,0.2328,0.2343,0.2356,0.2372,0.2375,0.2382,0.2406,0.2403,0.2409,0.2413,0.2403,0.2436,0.2427,0.2414,0.2385,0.2426,0.2435,0.2441,0.2362,0.2361,0.2361,0.236,0,0,0.2278,0.2306,0.2306,0.2308,0.234,0.2341,0.2375,0.2398,0.241,0.243,0.2444,0.2464,0.2465,0.2465,0.246,0.2474,0.2513,0.2459,0.2459,0.2464,0.255,0.2535,0.2539,0.2507,0.2509,0.251,0.2544,0,0.2284,0.2299,0.232,0.2331,0.2334,0.2361,0.2383,0.2409,0.2431,0.245,0.247,0.2482,0.2484,0.2484,0.2506,0.2511,0.2529,0.2505,0.2514,0.2515,0.2491,0.2546,0.2465,0.2488,0.2549,0.255,0.2551,0,0.2281,0.2291,0.2304,0.2319,0.2323,0.2339,0.2367,0.2393,0.2441,0.2459,0.2494,0.2504,0.2542,0.2526,0.2574,0.2558,0.2561,0.2563,0.2564,0.2539,0.2511,0.2457,0.2496,0.2454,0.2559,0.2558,0.2558,0,0.2244,0.227,0.2275,0.2284,0.2314,0.2326,0.2347,0.2393,0.2415,0.2468,0.2486,0.2533,0.2552,0.2577,0.2603,0.2586,0.2645,0.2619,0.261,0.2609,0.2536,0.2527,0.2529,0.2649,0.2649,0.2649,0.2648,0,0.223,0.2226,0.2255,0.2256,0.2259,0.2292,0.2311,0.2347,0.24,0.2428,0.2485,0.2521,0.2565,0.2605,0.2618,0.2647,0.2665,0.2629,0.2624,0.2549,0.2541,0.2497,0.2458,0.265,0.265,0.2649,0.2649,0,0.2181,0.2205,0.2204,0.2233,0.2241,0.2241,0.2286,0.2297,0.2364,0.2405,0.2422,0.2518,0.2584,0.2624,0.2669,0.2663,0.2615,0.2685,0.2597,0.2581,0.252,0.2485,0.2364,0.23,0.2676,0.2676,0.2676,0,0.2156,0.2152,0.2175,0.2168,0.2181,0.2193,0.22,0.2269,0.2291,0.2406,0.2417,0.2511,0.2565,0.2647,0.2663,0.2688,0.2612,0.2615,0.2569,0.2521,0.2478,0.2362,0.2308,0.2488,0.2487,0.2485,0.2484,0,0.2104,0.2114,0.2113,0.2108,0.2109,0.2113,0.2136,0.2151,0.2236,0.2291,0.2376,0.2436,0.2538,0.2565,0.2615,0.2608,0.2492,0.2588,0.2558,0.2355,0.2206,0.214,0.2462,0.2473,0.2474,0.2475,0.2475,0.2476,0.2055,0.204,0.2041,0.2025,0.2026,0.2018,0.2001,0.2047,0.209,0.2155,0.2283,0.2346,0.2462,0.2535,0.2517,0.2455,0.2413,0.2391,0.2361,0.2254,0.2162,0.2466,0.2459,0.246,0.2461,0.2461,0.2462,0,0.1974,0.1965,0.1953,0.193,0.1897,0.1932,0.1936,0.1914,0.1935,0.2046,0.2121,0.224,0.2282,0.2341,0.2351,0.2264,0.2129,0.2191,0.2012,0.1978,0.2277,0.2242,0.2164,0.2164,0.2164,0.2164,0.2164,0.2164,0.193,0.1888,0.1881,0.1803,0.1786,0.1726,0.1712,0.1713,0.1762,0.1829,0.1901,0.1997,0.2155,0.2223,0.2162,0.2094,0.1939,0.1827,0.1825,0.2059,0.2075,0.209,0.2051,0.1934,0.1934,0.1455,0.1451,0.1449]},{"header":{"parameterUnit":"m.s-1","parameterCategory":2,"la1":30.2991,"la2":30.254,"lo1":-89.0895,"lo2":-89.0444,"dy":0.0017,"dx":0.0017,"nx":28,"ny":28,"refTime":"2024-02-12T03:00:00:Z","depth":"0","parameterNumber":3,"parameterNumberName":"V-component_of_CURRENTS"},"data":[0,0,0,0,0,0,0,0,0,0,0,0,0,0,0,0,0,0,0,0,0,0,0,0,0,0,0,0,0,0,0,0,0,0,0,0,0,0,0,0,0,0,0,0,0,0,0,0,0,0,0,0,0,0,0,0,0,0,0.0234,0.0234,0,0.0211,0.0211,0.0211,0.019,0.0189,0.0189,0.0189,0.014,0.0139,0.0138,0,0,0,0,0,0,0,0,0,0,0,0,0,0.0213,0.0214,0.0234,0.0234,0.0233,0.0211,0.0211,0.0211,0.019,0.0189,0.0189,0.0189,0.014,0.0139,0.0138,0,0,0,0,0,0,0,0,0,0,0,0,0,0.021,0.0214,0.0234,0.022,0.0219,0.0211,0.0211,0.0211,0.019,0.0189,0.0189,0.0189,0.0141,0.0139,0.0138,0.0136,0,0,0.0133,0.0132,0,0,0,0,0,0,0,0,0.021,0.0211,0.0222,0.0221,0.0219,0.0203,0.0186,0.0184,0.019,0.0201,0.0189,0.0188,0.0159,0.0156,0.0153,0.0134,0.0132,0.0133,0.0132,0.0131,0.0131,0,0,0,0,0,0,0,0.021,0.0211,0.0225,0.0222,0.022,0.0199,0.0199,0.0185,0.0182,0.02,0.0198,0.0196,0.0158,0.0155,0.0152,0.0131,0.0133,0.0131,0.013,0.013,0.0105,0.0106,0,0,0,0,0,0,0.0216,0.0212,0.0226,0.0224,0.0214,0.02,0.02,0.0209,0.0183,0.0179,0.0196,0.0195,0.0157,0.0153,0.015,0.0155,0.0131,0.013,0.0129,0.0105,0.0106,0.0106,0,0,0,0,0,0,0.0216,0.0218,0.0227,0.0217,0.0216,0.0201,0.0211,0.0208,0.0207,0.018,0.0175,0.0198,0.0157,0.0152,0.0143,0.0152,0.0129,0.0128,0.0105,0.0105,0.0106,0.0159,0,0,0,0,0,0,0.0216,0.0218,0.0224,0.0218,0.0217,0.0231,0.0212,0.0208,0.0206,0.0204,0.018,0.0175,0.0156,0.0145,0.0141,0.0149,0.0126,0.0104,0.0105,0.0106,0.0157,0.0161,0.0165,0,0,0,0,0,0.0215,0.0232,0.0225,0.0226,0.0227,0.0232,0.023,0.0217,0.0206,0.0213,0.0194,0.0176,0.0146,0.0144,0.0139,0.0148,0.0104,0.0105,0.0106,0.0155,0.016,0.0165,0,0,0,0,0,0,0.0227,0.0231,0.0224,0.024,0.0238,0.0228,0.023,0.0222,0.0212,0.0208,0.0181,0.0175,0.0169,0.0151,0.0151,0.0141,0.0121,0.0121,0.016,0.0165,0.0169,0.0185,0.0125,0,0,0,0,0,0.0232,0.0244,0.0242,0.0254,0.0254,0.0242,0.024,0.0235,0.0225,0.0221,0.0203,0.0183,0.0168,0.0161,0.0145,0.0143,0.0123,0.0144,0.0148,0.0151,0.016,0.0138,0.0141,0.0108,0.0108,0.0108,0,0,0.0238,0.0241,0.0248,0.0256,0.0251,0.0262,0.0241,0.0246,0.0255,0.0217,0.022,0.0196,0.017,0.0167,0.0162,0.0154,0.015,0.0152,0.0156,0.0163,0.0139,0.0142,0.0145,0.0108,0.0108,0.0108,0,0,0.0261,0.0261,0.028,0.0284,0.0284,0.0278,0.0282,0.0277,0.0273,0.0272,0.0247,0.0232,0.0209,0.0196,0.0186,0.0202,0.017,0.0193,0.0229,0.0207,0.021,0.0212,0.0191,0.0191,0.0197,0.0197,0.0197,0,0.0266,0.0294,0.0285,0.0304,0.0312,0.0289,0.0312,0.0306,0.0298,0.03,0.028,0.0249,0.0225,0.0225,0.0229,0.0213,0.0193,0.0214,0.0213,0.0215,0.0216,0.0194,0.0193,0.0199,0.0199,0.0199,0.0198,0,0.0307,0.0326,0.0337,0.0355,0.036,0.0376,0.037,0.0372,0.0358,0.035,0.0343,0.0307,0.0291,0.0278,0.0258,0.0259,0.024,0.022,0.0204,0.0223,0.0198,0.0196,0.0203,0.0202,0.0201,0.0201,0,0,0.0331,0.0362,0.0366,0.0385,0.0392,0.0403,0.0416,0.0426,0.0441,0.0414,0.0426,0.0392,0.0367,0.0354,0.0323,0.0303,0.0292,0.027,0.0268,0.0255,0.0244,0.0239,0.0236,0.027,0.027,0.027,0.0223,0,0.0366,0.0417,0.042,0.0462,0.0487,0.0476,0.0494,0.0496,0.0486,0.049,0.0449,0.0443,0.0398,0.039,0.0364,0.0313,0.029,0.0307,0.0223,0.022,0.0218,0.0234,0.026,0.022,0.022,0.022,0.022,0,0.0409,0.0438,0.0491,0.0526,0.0536,0.0555,0.058,0.0594,0.0588,0.0581,0.0561,0.0522,0.0494,0.0447,0.0371,0.0384,0.0322,0.0274,0.0271,0.0249,0.0212,0.02,0.0216,0.0139,0.0217,0.0217,0.0217,0,0.0439,0.0487,0.0531,0.0545,0.058,0.0602,0.0616,0.0624,0.0647,0.0638,0.0644,0.0595,0.0576,0.0493,0.0395,0.0382,0.0307,0.0274,0.0209,0.0207,0.0205,0.0204,0.0143,0.0218,0.0218,0.0218,0.0218,0,0.048,0.0515,0.0552,0.058,0.0636,0.0643,0.0696,0.0703,0.072,0.0759,0.0694,0.0708,0.0587,0.0525,0.0422,0.0319,0.0326,0.0223,0.0199,0.0224,0.0224,0.0137,0.0078,0.0216,0.0217,0.0217,0.0217,0,0.0506,0.053,0.0586,0.0635,0.0655,0.0695,0.0751,0.0788,0.0795,0.0841,0.084,0.0795,0.0723,0.0593,0.0467,0.0367,0.0214,0.0217,0.0256,0.0237,0.0103,0.0047,-0.0038,-0.0075,0.0138,0.0138,0.0138,0,0.0524,0.0558,0.0627,0.0665,0.0691,0.075,0.0795,0.0825,0.0871,0.0904,0.0932,0.0875,0.0859,0.0667,0.0484,0.0307,0.0212,0.0202,0.018,0.0108,0.0027,-0.0001,-0.0028,0.0193,0.0193,0.0193,0.0193,0,0.056,0.0584,0.0629,0.0708,0.0765,0.0834,0.0902,0.095,0.0996,0.1039,0.1089,0.1079,0.0908,0.0758,0.0512,0.0377,0.0158,0.02,0.0115,0.0062,0.0037,-0.0013,0.0207,0.0194,0.0194,0.0194,0.0194,0.0194,0.0583,0.062,0.0681,0.0755,0.0822,0.0911,0.0976,0.1055,0.1144,0.123,0.1217,0.1241,0.1022,0.0698,0.0491,0.0168,0.016,0.0083,0.0019,-0.0003,-0.0031,0.0196,0.0162,0.0162,0.0161,0.0161,0.0161,0,0.061,0.0655,0.0723,0.0815,0.0891,0.0926,0.1043,0.1119,0.1236,0.1335,0.1391,0.1331,0.1032,0.0714,0.0274,0.0042,-0.0042,-0.0078,-0.0113,-0.0135,0.0062,0.0073,0.0031,0.0032,0.0032,0.0032,0.0032,0.0032,0.0627,0.0691,0.0728,0.0856,0.0922,0.1034,0.1106,0.1227,0.1329,0.1473,0.1534,0.1564,0.1369,0.0547,0.0019,-0.0122,-0.0276,-0.0298,-0.0382,-0.025,-0.0239,-0.0229,-0.0231,-0.0336,-0.0336,-0.0524,-0.0526,-0.0528]}],[{"header":{"parameterUnit":"m.s-1","parameterCategory":2,"la1":30.2991,"la2":30.254,"lo1":-89.0895,"lo2":-89.0444,"dy":0.0017,"dx":0.0017,"nx":28,"ny":28,"refTime":"2024-02-12T03:00:00:Z","depth":"2","parameterNumber":2,"parameterNumberName":"U-component_of_CURRENTS"},"data":[0,0,0,0,0,0,0,0,0,0,0,0,0,0,0,0,0,0,0,0,0,0,0,0,0,0,0,0,0,0,0,0,0,0,0,0,0,0,0,0,0,0,0,0,0,0,0,0,0,0,0,0,0,0,0,0,0,0,0.1869,0.1869,0,0.1884,0.1884,0.1884,0.1878,0.1878,0.1878,0.1877,0.1875,0.1875,0.1875,0,0,0,0,0,0,0,0,0,0,0,0,0,0.184,0.184,0.1869,0.1869,0.1869,0.1884,0.1884,0.1884,0.1878,0.1878,0.1878,0.1877,0.1875,0.1875,0.1875,0,0,0,0,0,0,0,0,0,0,0,0,0,0.1852,0.184,0.1869,0.1869,0.1869,0.1884,0.1884,0.1884,0.1878,0.1878,0.1878,0.1877,0.1875,0.1875,0.1875,0.1884,0,0,0.1876,0.1876,0,0,0,0,0,0,0,0,0.1852,0.1853,0.1869,0.1869,0.1869,0.188,0.1873,0.1884,0.1878,0.1873,0.1877,0.1877,0.1876,0.1876,0.1878,0.1883,0.1883,0.1876,0.1876,0.1876,0.1876,0,0,0,0,0,0,0,0.1851,0.1853,0.1873,0.1869,0.1869,0.1871,0.1872,0.1875,0.1875,0.1874,0.1874,0.1878,0.1876,0.1878,0.1878,0.1883,0.1876,0.1876,0.1876,0.1876,0.1929,0.1931,0,0,0,0,0,0,0.1852,0.1852,0.1873,0.1874,0.1861,0.1872,0.1873,0.1876,0.1875,0.1876,0.1878,0.1877,0.1878,0.1878,0.1878,0.1913,0.1876,0.1876,0.1876,0.1928,0.193,0.1931,0,0,0,0,0,0,0.1851,0.1853,0.1872,0.1864,0.1867,0.1873,0.1876,0.1876,0.1887,0.1879,0.1879,0.189,0.1877,0.1877,0.1894,0.1912,0.1876,0.1876,0.1927,0.1929,0.193,0.1967,0,0,0,0,0,0,0.185,0.1853,0.1861,0.1864,0.1868,0.189,0.1877,0.1877,0.1891,0.189,0.1889,0.1888,0.1877,0.1894,0.1894,0.1911,0.1877,0.1925,0.1928,0.193,0.1964,0.197,0.1975,0,0,0,0,0,0.1849,0.1858,0.1861,0.1864,0.1876,0.1891,0.1893,0.1895,0.1892,0.1902,0.1903,0.1888,0.1909,0.1895,0.1895,0.1913,0.1924,0.1927,0.193,0.1962,0.1969,0.1975,0,0,0,0,0,0,0.1847,0.1858,0.1862,0.1873,0.1887,0.1891,0.19,0.1904,0.1913,0.1915,0.1903,0.1903,0.1926,0.1918,0.1902,0.1937,0.1915,0.1918,0.1939,0.1946,0.1951,0.1955,0.1877,0,0,0,0,0,0.1852,0.1862,0.1874,0.1885,0.1892,0.19,0.1908,0.1913,0.192,0.1924,0.1924,0.1927,0.1937,0.194,0.1947,0.1963,0.1963,0.1977,0.1982,0.1987,0.1991,0.2011,0.2018,0.1941,0.1941,0.194,0,0,0.1853,0.1862,0.1868,0.1886,0.1895,0.191,0.1904,0.1923,0.1938,0.1923,0.1943,0.1948,0.1948,0.1969,0.1978,0.1963,0.201,0.199,0.1994,0.1996,0.2014,0.2022,0.2028,0.1943,0.1942,0.1942,0,0,0.186,0.1871,0.1882,0.1897,0.1919,0.1926,0.1935,0.195,0.196,0.1982,0.1979,0.1997,0.2005,0.2011,0.2014,0.2055,0.2041,0.2058,0.2082,0.2101,0.2108,0.2113,0.2124,0.213,0.2056,0.2056,0.2056,0,0.1863,0.1877,0.1889,0.1905,0.1919,0.1935,0.1952,0.1967,0.1987,0.2,0.1994,0.2026,0.2026,0.2053,0.2068,0.2067,0.2072,0.2055,0.2107,0.2113,0.2118,0.2128,0.2134,0.2058,0.2058,0.2058,0.2058,0,0.1877,0.1893,0.1902,0.1926,0.1944,0.1965,0.1987,0.2009,0.2022,0.2037,0.2072,0.2078,0.2095,0.2101,0.2096,0.2135,0.2126,0.2114,0.2088,0.2128,0.2136,0.2142,0.2061,0.206,0.206,0.2059,0,0,0.1868,0.1904,0.1907,0.1917,0.1959,0.1967,0.2007,0.204,0.206,0.2088,0.2113,0.2142,0.215,0.2155,0.2156,0.2171,0.2213,0.216,0.216,0.2166,0.2253,0.2227,0.2231,0.2209,0.2211,0.2212,0.2245,0,0.1876,0.1899,0.1924,0.1947,0.1958,0.1993,0.2022,0.2057,0.2087,0.2117,0.2143,0.2167,0.2169,0.2178,0.22,0.2212,0.223,0.2205,0.2218,0.2219,0.2187,0.2238,0.2067,0.2081,0.225,0.2251,0.2252,0,0.1876,0.1892,0.1916,0.1946,0.1954,0.1977,0.2022,0.2054,0.2111,0.2136,0.2179,0.2195,0.2239,0.2224,0.2274,0.2259,0.2264,0.2267,0.2268,0.2235,0.2205,0.2069,0.2085,0.2261,0.2261,0.226,0.2259,0,0.1842,0.188,0.1895,0.1909,0.1953,0.1974,0.2003,0.206,0.209,0.2154,0.2179,0.2231,0.2257,0.2282,0.2307,0.2292,0.2351,0.2326,0.2307,0.2305,0.2158,0.2141,0.2357,0.2357,0.2357,0.2357,0.2357,0,0.1831,0.1839,0.1879,0.1887,0.1907,0.1948,0.1983,0.2026,0.2089,0.2125,0.2186,0.2225,0.2274,0.2313,0.2324,0.2346,0.237,0.2326,0.2319,0.2167,0.2152,0.2302,0.2296,0.2358,0.2358,0.2358,0.2357,0,0.1788,0.1819,0.1832,0.1877,0.1891,0.1905,0.1968,0.1987,0.2062,0.2113,0.2135,0.223,0.2293,0.2332,0.2377,0.2365,0.2383,0.2379,0.22,0.2172,0.2316,0.2311,0.236,0.2359,0.2359,0.2358,0.2358,0,0.1768,0.1771,0.1812,0.1817,0.184,0.1871,0.1889,0.1967,0.1995,0.2115,0.2129,0.2223,0.2269,0.2341,0.2345,0.2361,0.2394,0.2201,0.2143,0.2332,0.232,0.2316,0.2311,0.1959,0.1955,0.1952,0.195,0,0.1725,0.1743,0.1752,0.1767,0.1783,0.18,0.1838,0.186,0.1952,0.2005,0.2085,0.2138,0.2224,0.2188,0.2224,0.2202,0.2186,0.2144,0.2386,0.1994,0.1959,0.1946,0.1954,0.1924,0.1927,0.1929,0.193,0.1931,0.1687,0.168,0.1695,0.1699,0.1715,0.1719,0.1712,0.1763,0.1807,0.1868,0.198,0.2005,0.2055,0.2036,0.1985,0.1941,0.2087,0.1984,0.199,0.2,0.1957,0.1925,0.1875,0.1877,0.1879,0.1881,0.1882,0,0.1621,0.1621,0.1623,0.162,0.16,0.1642,0.1658,0.1638,0.1658,0.1745,0.1801,0.1704,0.1704,0.1741,0.165,0.1658,0.1602,0.1577,0.1496,0.1525,0.1549,0.148,0.1273,0.1271,0.1268,0.1266,0,0,0.1586,0.1557,0.1555,0.1502,0.1501,0.1457,0.145,0.1449,0.1481,0.1485,0.1497,0.164,0.1709,0.1483,0.146,0.1353,0.1412,0.1287,0.1784,0.1719,0.174,0.1803,0.1733,0,0,0,0,0]},{"header":{"parameterUnit":"m.s-1","parameterCategory":2,"la1":30.2991,"la2":30.254,"lo1":-89.0895,"lo2":-89.0444,"dy":0.0017,"dx":0.0017,"nx":28,"ny":28,"refTime":"2024-02-12T03:00:00:Z","depth":"2","parameterNumber":3,"parameterNumberName":"V-component_of_CURRENTS"},"data":[0,0,0,0,0,0,0,0,0,0,0,0,0,0,0,0,0,0,0,0,0,0,0,0,0,0,0,0,0,0,0,0,0,0,0,0,0,0,0,0,0,0,0,0,0,0,0,0,0,0,0,0,0,0,0,0,0,0,0.0104,0.0104,0,0.0088,0.0088,0.0088,0.0073,0.0072,0.0072,0.0072,0.0034,0.0033,0.0033,0,0,0,0,0,0,0,0,0,0,0,0,0,0.0079,0.008,0.0104,0.0104,0.0104,0.0088,0.0088,0.0088,0.0073,0.0072,0.0072,0.0072,0.0034,0.0033,0.0033,0,0,0,0,0,0,0,0,0,0,0,0,0,0.008,0.008,0.0104,0.0094,0.0093,0.0088,0.0088,0.0088,0.0073,0.0072,0.0072,0.0072,0.0035,0.0034,0.0032,0.0033,0,0,0.0029,0.0028,0,0,0,0,0,0,0,0,0.008,0.0081,0.0095,0.0094,0.0093,0.0082,0.0065,0.0068,0.0073,0.0081,0.0072,0.0071,0.0048,0.0046,0.0044,0.0031,0.0029,0.0029,0.0028,0.0028,0.0027,0,0,0,0,0,0,0,0.008,0.0081,0.0098,0.0095,0.0094,0.0075,0.0076,0.0066,0.0066,0.008,0.0079,0.0076,0.0047,0.0046,0.0043,0.0029,0.0029,0.0028,0.0027,0.0027,0.0009,0.0009,0,0,0,0,0,0,0.0084,0.0081,0.0099,0.0098,0.0085,0.0076,0.0077,0.0086,0.0067,0.0064,0.0077,0.0076,0.0048,0.0045,0.0042,0.0047,0.0028,0.0026,0.0026,0.0008,0.0009,0.0009,0,0,0,0,0,0,0.0083,0.0086,0.0099,0.0088,0.0088,0.0078,0.0088,0.0086,0.0086,0.0065,0.0061,0.0079,0.0047,0.0044,0.0037,0.0045,0.0026,0.0025,0.0008,0.0009,0.0009,0.0054,0,0,0,0,0,0,0.0083,0.0086,0.0092,0.0089,0.0089,0.0105,0.0088,0.0086,0.0085,0.0084,0.0066,0.0062,0.0047,0.0039,0.0036,0.0043,0.0024,0.0008,0.0008,0.0009,0.0052,0.0055,0.0059,0,0,0,0,0,0.0082,0.0099,0.0093,0.0095,0.0099,0.0106,0.0105,0.0095,0.0085,0.0092,0.0077,0.0062,0.0039,0.0039,0.0035,0.0042,0.0008,0.0008,0.0009,0.005,0.0055,0.0058,0,0,0,0,0,0,0.0092,0.0099,0.0092,0.011,0.0109,0.0103,0.0106,0.0099,0.0093,0.009,0.0067,0.0063,0.0059,0.0044,0.0044,0.0037,0.002,0.002,0.0053,0.0057,0.006,0.0074,0.0023,0,0,0,0,0,0.0097,0.011,0.011,0.0122,0.0123,0.0114,0.0114,0.011,0.0104,0.0101,0.0086,0.007,0.0059,0.0053,0.0041,0.004,0.0021,0.004,0.0044,0.0047,0.0055,0.0031,0.0033,0.0011,0.0011,0.0011,0,0,0.0102,0.0107,0.0114,0.0124,0.0121,0.0132,0.0114,0.012,0.0129,0.0097,0.0102,0.0082,0.006,0.0059,0.0056,0.0048,0.0042,0.0047,0.005,0.0057,0.0032,0.0034,0.0036,0.0011,0.0011,0.0011,0,0,0.0124,0.0126,0.0144,0.0149,0.0151,0.0147,0.0151,0.0148,0.0146,0.0147,0.0125,0.0112,0.0096,0.0084,0.0074,0.0089,0.006,0.0082,0.0111,0.0088,0.009,0.0092,0.0069,0.0068,0.0084,0.0084,0.0084,0,0.0128,0.0156,0.0149,0.0169,0.0176,0.0156,0.0178,0.0174,0.0169,0.0171,0.0155,0.0129,0.0109,0.0107,0.0111,0.0097,0.0079,0.0099,0.0093,0.0094,0.0095,0.0071,0.007,0.0086,0.0086,0.0086,0.0086,0,0.0167,0.0185,0.0197,0.0215,0.022,0.0237,0.0231,0.0235,0.0222,0.0215,0.0209,0.0178,0.0164,0.0153,0.0136,0.0133,0.0117,0.01,0.0086,0.01,0.0074,0.0072,0.009,0.0089,0.0088,0.0088,0,0,0.0189,0.0219,0.0223,0.0241,0.0249,0.0261,0.0273,0.0282,0.0294,0.0271,0.028,0.0251,0.0229,0.0217,0.019,0.0169,0.0154,0.0141,0.0139,0.0124,0.0103,0.0098,0.0094,0.0135,0.0134,0.0134,0.0083,0,0.0222,0.0269,0.0273,0.0312,0.0336,0.0327,0.0343,0.0345,0.0335,0.0337,0.0299,0.0294,0.0255,0.0249,0.0222,0.0174,0.0149,0.0169,0.0087,0.0085,0.0082,0.0092,0.0109,0.0065,0.008,0.0079,0.0079,0,0.0261,0.0289,0.0338,0.037,0.038,0.0398,0.042,0.0433,0.0425,0.0418,0.0397,0.0363,0.0334,0.0294,0.0219,0.0234,0.0175,0.0131,0.0127,0.0107,0.0076,0.0052,0.0059,0.0074,0.0075,0.0075,0.0076,0,0.0287,0.0333,0.0375,0.0388,0.0421,0.0441,0.0454,0.0459,0.048,0.047,0.0474,0.0425,0.0408,0.0329,0.0238,0.0227,0.015,0.0121,0.0059,0.0057,0.0049,0.0047,0.0064,0.0064,0.0064,0.0064,0.0064,0,0.0325,0.0358,0.0394,0.042,0.0472,0.0479,0.0526,0.0532,0.0546,0.0579,0.052,0.0529,0.0416,0.0356,0.026,0.016,0.0165,0.007,0.0047,0.0064,0.0065,0.0055,0.0055,0.0062,0.0063,0.0063,0.0063,0,0.0349,0.0373,0.0425,0.047,0.0489,0.0527,0.0579,0.0611,0.0617,0.0656,0.0656,0.0609,0.0536,0.0416,0.0293,0.02,0.0096,0.0056,0.0087,0.0069,0.001,0.0012,-0.0021,-0.0022,-0.0022,-0.0023,-0.0023,0,0.0367,0.0398,0.0463,0.0499,0.0524,0.058,0.0621,0.0648,0.0687,0.0712,0.0735,0.0677,0.0653,0.0468,0.0299,0.0133,0.0102,0.0029,0.001,0.0022,0.0002,0.0006,0.0009,0.0011,0.0011,0.0011,0.0011,0,0.0399,0.0422,0.0465,0.0539,0.0592,0.0657,0.0718,0.0761,0.0801,0.0835,0.0871,0.0853,0.0688,0.0533,0.0304,0.0184,0.0057,0.0023,0.0028,0.0035,0.0049,0.0031,0.0033,0.0011,0.0011,0.0011,0.0011,0.0011,0.042,0.0454,0.051,0.0581,0.0645,0.0726,0.0785,0.0852,0.0928,0.0994,0.0974,0.0959,0.0774,0.0494,0.0283,0.0057,0.007,-0.0018,-0.0017,-0.0016,0.0002,0.0015,-0.0026,-0.0027,-0.0027,-0.0027,-0.0027,0,0.0443,0.0486,0.0549,0.0634,0.0705,0.074,0.0845,0.0908,0.1005,0.1072,0.1107,0.0931,0.075,0.0527,0.0208,0.0014,-0.0012,-0.0064,-0.0046,-0.0044,-0.0042,-0.0025,-0.0062,-0.0062,-0.0063,-0.0064,0,0,0.0459,0.0515,0.0549,0.0668,0.0732,0.0834,0.0899,0.0998,0.1072,0.114,0.1143,0.1116,0.0843,0.0601,0.0332,0.0143,0.009,0.0093,0.0145,0.0201,0.0205,0.001,0.0043,0,0,0,0,0]}],[{"header":{"parameterUnit":"m.s-1","parameterCategory":2,"la1":30.2991,"la2":30.254,"lo1":-89.0895,"lo2":-89.0444,"dy":0.0017,"dx":0.0017,"nx":28,"ny":28,"refTime":"2024-02-12T03:00:00:Z","depth":"4","parameterNumber":2,"parameterNumberName":"U-component_of_CURRENTS"},"data":[0,0,0,0,0,0,0,0,0,0,0,0,0,0,0,0,0,0,0,0,0,0,0,0,0,0,0,0,0,0,0,0,0,0,0,0,0,0,0,0,0,0,0,0,0,0,0,0,0,0,0,0,0,0,0,0,0,0,0.1189,0.119,0,0.1246,0.1247,0.1247,0.1292,0.1292,0.1293,0.1293,0.136,0.1362,0.1363,0,0,0,0,0,0,0,0,0,0,0,0,0,0.1123,0.1124,0.1189,0.119,0.1191,0.1246,0.1247,0.1247,0.1292,0.1292,0.1293,0.1293,0.136,0.1361,0.1363,0,0,0,0,0,0,0,0,0,0,0,0,0,0.1162,0.1124,0.1189,0.1221,0.1224,0.1246,0.1247,0.1248,0.1291,0.1292,0.1293,0.1294,0.1359,0.1361,0.1363,0.1359,0,0,0.1369,0.137,0,0,0,0,0,0,0,0,0.116,0.1164,0.1215,0.1218,0.1222,0.1264,0.1248,0.1286,0.1291,0.1265,0.1293,0.1294,0.1329,0.1333,0.1341,0.1362,0.1365,0.1369,0.137,0.1371,0.1372,0,0,0,0,0,0,0,0.1157,0.1162,0.1211,0.1216,0.122,0.1233,0.1239,0.1255,0.1291,0.1267,0.1271,0.1278,0.1331,0.1339,0.1343,0.1366,0.1369,0.1371,0.1372,0.1373,0.1467,0.1468,0,0,0,0,0,0,0.1151,0.1159,0.1209,0.1213,0.1194,0.1234,0.1241,0.1249,0.1291,0.1298,0.1278,0.128,0.1335,0.134,0.1345,0.1414,0.1371,0.1373,0.1374,0.1465,0.1467,0.1468,0,0,0,0,0,0,0.1149,0.1155,0.1207,0.1188,0.1196,0.1234,0.1243,0.1249,0.1284,0.1299,0.1307,0.1309,0.1336,0.1342,0.1385,0.1414,0.1374,0.1376,0.1464,0.1466,0.1468,0.1505,0,0,0,0,0,0,0.1147,0.1154,0.1171,0.1188,0.1197,0.1236,0.1242,0.125,0.1286,0.1291,0.1327,0.1333,0.1337,0.1382,0.1387,0.1416,0.1377,0.1462,0.1465,0.1467,0.1502,0.1508,0.1513,0,0,0,0,0,0.1145,0.1157,0.1171,0.1178,0.1214,0.1237,0.1244,0.1272,0.1287,0.1306,0.1334,0.1333,0.1401,0.1385,0.139,0.142,0.1461,0.1464,0.1467,0.15,0.1507,0.1513,0,0,0,0,0,0,0.1138,0.1164,0.1179,0.1201,0.1227,0.1246,0.1268,0.1286,0.1322,0.1337,0.1348,0.1356,0.1405,0.1407,0.1388,0.1455,0.1432,0.1436,0.1455,0.1462,0.1468,0.1471,0.1379,0,0,0,0,0,0.1144,0.1163,0.1187,0.1209,0.1223,0.1251,0.127,0.1291,0.1318,0.1336,0.1361,0.139,0.1417,0.1436,0.1458,0.1492,0.1491,0.1516,0.1521,0.1526,0.1533,0.1556,0.1564,0.1478,0.1478,0.1478,0,0,0.1147,0.1165,0.1178,0.121,0.1233,0.1258,0.1265,0.1302,0.1331,0.1337,0.1392,0.1413,0.1431,0.1472,0.1494,0.1481,0.155,0.153,0.1533,0.1538,0.156,0.1568,0.1576,0.148,0.148,0.1479,0,0,0.1155,0.1182,0.1199,0.1223,0.1264,0.1281,0.1297,0.1334,0.1362,0.1408,0.1424,0.1464,0.1503,0.1523,0.1536,0.1585,0.158,0.1597,0.1627,0.165,0.1657,0.1663,0.167,0.1677,0.1598,0.1598,0.1598,0,0.1163,0.1186,0.1209,0.1233,0.1259,0.1293,0.1321,0.1351,0.14,0.1428,0.1434,0.1508,0.1526,0.1574,0.1595,0.1598,0.1605,0.1598,0.1656,0.1662,0.1668,0.1674,0.1681,0.16,0.16,0.16,0.1599,0,0.1175,0.1208,0.1222,0.1264,0.1293,0.1326,0.1365,0.1406,0.1444,0.1473,0.1539,0.1564,0.1608,0.1621,0.1626,0.1681,0.167,0.166,0.1636,0.1679,0.1682,0.1689,0.1603,0.1602,0.1602,0.1601,0,0,0.1161,0.122,0.1229,0.1255,0.1317,0.1336,0.1394,0.1449,0.1489,0.1541,0.1591,0.1646,0.1668,0.1684,0.1698,0.1721,0.1767,0.1714,0.1714,0.1716,0.1813,0.1704,0.17,0.177,0.1771,0.1772,0.1797,0,0.1171,0.1213,0.1247,0.1298,0.1323,0.1377,0.1423,0.148,0.1532,0.1587,0.163,0.1682,0.1689,0.1717,0.1744,0.1766,0.1787,0.1761,0.1776,0.1776,0.167,0.1705,0.1777,0.1802,0.1803,0.1804,0.1805,0,0.117,0.1202,0.125,0.1315,0.1332,0.1373,0.1455,0.1503,0.1586,0.1626,0.1689,0.1722,0.1783,0.1771,0.1831,0.1817,0.1824,0.1829,0.183,0.172,0.1679,0.1752,0.1816,0.1815,0.1814,0.1813,0.1813,0,0.1134,0.1202,0.1242,0.1266,0.1344,0.1386,0.1438,0.1522,0.157,0.1661,0.1699,0.1769,0.181,0.1839,0.1867,0.1857,0.1913,0.1893,0.1799,0.1791,0.1864,0.1857,0.1927,0.1927,0.1927,0.1927,0.1927,0,0.1118,0.1153,0.1232,0.1254,0.131,0.1373,0.1445,0.1506,0.1593,0.1643,0.1722,0.1762,0.1832,0.1872,0.1883,0.1861,0.1929,0.1809,0.1793,0.1879,0.1873,0.1868,0.186,0.1928,0.1928,0.1928,0.1928,0,0.107,0.1124,0.1173,0.1262,0.1295,0.1338,0.1446,0.1486,0.1581,0.1648,0.1679,0.1775,0.1825,0.1871,0.1917,0.1867,0.1864,0.1837,0.1929,0.1916,0.172,0.1715,0.1725,0.1721,0.1718,0.1716,0.1714,0,0.1047,0.1068,0.1168,0.1199,0.1247,0.1322,0.1367,0.1472,0.1512,0.1641,0.1655,0.1744,0.1794,0.1766,0.1831,0.1833,0.1815,0.179,0.1751,0.1718,0.1702,0.1701,0.17,0.1709,0.1708,0.1707,0.1707,0,0.1003,0.105,0.1089,0.1154,0.1209,0.126,0.1334,0.1352,0.1463,0.1557,0.1588,0.1616,0.1665,0.1698,0.171,0.1713,0.1793,0.1758,0.1763,0.1727,0.1698,0.1685,0.1688,0.1696,0.1698,0.1699,0.1699,0,0.0972,0.0987,0.1045,0.1092,0.1153,0.1176,0.1228,0.1268,0.132,0.1449,0.1461,0.1558,0.1649,0.1637,0.1657,0.1645,0.1617,0.1551,0.1567,0.1579,0.1521,0.1463,0.1377,0,0,0,0,0,0.0932,0.0938,0.0976,0.1019,0.1073,0.1111,0.1189,0.1239,0.1343,0.1322,0.1386,0.1426,0.1455,0.1513,0.1471,0.16,0.1628,0.1544,0.1561,0.1638,0.165,0.1596,0,0,0,0,0,0,0.0905,0.0935,0.0947,0.0944,0.0958,0.1007,0.1053,0.1125,0.112,0.1229,0.1254,0.1334,0.1388,0.1462,0.1443,0.1458,0.1437,0.1607,0.1603,0.1631,0.1642,0.1652,0.16,0,0,0,0,0]},{"header":{"parameterUnit":"m.s-1","parameterCategory":2,"la1":30.2991,"la2":30.254,"lo1":-89.0895,"lo2":-89.0444,"dy":0.0017,"dx":0.0017,"nx":28,"ny":28,"refTime":"2024-02-12T03:00:00:Z","depth":"4","parameterNumber":3,"parameterNumberName":"V-component_of_CURRENTS"},"data":[0,0,0,0,0,0,0,0,0,0,0,0,0,0,0,0,0,0,0,0,0,0,0,0,0,0,0,0,0,0,0,0,0,0,0,0,0,0,0,0,0,0,0,0,0,0,0,0,0,0,0,0,0,0,0,0,0,0,0.0071,0.0071,0,0.0064,0.0064,0.0064,0.0054,0.0054,0.0054,0.0053,0.003,0.0029,0.0029,0,0,0,0,0,0,0,0,0,0,0,0,0,0.0051,0.0052,0.0071,0.0071,0.0071,0.0064,0.0064,0.0064,0.0054,0.0054,0.0053,0.0053,0.003,0.0029,0.0029,0,0,0,0,0,0,0,0,0,0,0,0,0,0.0054,0.0052,0.0071,0.0065,0.0064,0.0064,0.0064,0.0064,0.0054,0.0054,0.0053,0.0053,0.003,0.003,0.0029,0.0032,0,0,0.0027,0.0027,0,0,0,0,0,0,0,0,0.0054,0.0055,0.0066,0.0065,0.0064,0.0059,0.0048,0.0052,0.0054,0.0059,0.0053,0.0053,0.0038,0.0037,0.0037,0.0031,0.003,0.0027,0.0027,0.0026,0.0026,0,0,0,0,0,0,0,0.0054,0.0055,0.0069,0.0066,0.0065,0.0053,0.0053,0.0048,0.0051,0.0058,0.0057,0.0055,0.0037,0.0038,0.0036,0.0029,0.0027,0.0026,0.0026,0.0026,0.0017,0.0017,0,0,0,0,0,0,0.0055,0.0055,0.0069,0.0069,0.0057,0.0054,0.0054,0.0062,0.0051,0.0049,0.0056,0.0055,0.0039,0.0037,0.0036,0.004,0.0026,0.0026,0.0025,0.0016,0.0017,0.0017,0,0,0,0,0,0,0.0055,0.0057,0.007,0.006,0.0061,0.0054,0.0063,0.0062,0.0063,0.0049,0.0047,0.0058,0.0039,0.0036,0.0033,0.0039,0.0025,0.0025,0.0016,0.0017,0.0017,0.0048,0,0,0,0,0,0,0.0054,0.0057,0.0062,0.0061,0.0062,0.0075,0.0063,0.0062,0.0062,0.0061,0.005,0.0048,0.0038,0.0035,0.0033,0.0038,0.0024,0.0016,0.0016,0.0017,0.0047,0.0049,0.0051,0,0,0,0,0,0.0054,0.0067,0.0063,0.0064,0.007,0.0076,0.0076,0.0069,0.0062,0.0068,0.0058,0.0048,0.0035,0.0034,0.0032,0.0037,0.0016,0.0016,0.0017,0.0046,0.0049,0.0051,0,0,0,0,0,0,0.0061,0.0067,0.0062,0.0077,0.0077,0.0074,0.0077,0.0072,0.007,0.0067,0.0052,0.005,0.0048,0.0038,0.0038,0.0034,0.0023,0.0023,0.0046,0.0048,0.005,0.006,0.0024,0,0,0,0,0,0.0065,0.0076,0.0076,0.0086,0.0087,0.0082,0.0082,0.0081,0.0077,0.0076,0.0067,0.0056,0.0048,0.0045,0.0037,0.0038,0.0021,0.0038,0.0041,0.0043,0.0048,0.0025,0.0025,0.0018,0.0018,0.0018,0,0,0.007,0.0074,0.0079,0.0088,0.0086,0.0096,0.0082,0.0088,0.0096,0.0073,0.0079,0.0065,0.005,0.005,0.0048,0.0042,0.0036,0.0043,0.0045,0.005,0.0025,0.0026,0.0026,0.0018,0.0018,0.0018,0,0,0.0086,0.0089,0.0103,0.0108,0.011,0.0107,0.011,0.011,0.0109,0.0112,0.0096,0.0085,0.0077,0.0067,0.006,0.007,0.0049,0.0067,0.0087,0.0064,0.0064,0.0064,0.0044,0.0042,0.0068,0.0068,0.0068,0,0.009,0.0111,0.0107,0.0122,0.0128,0.0114,0.013,0.0129,0.0128,0.0129,0.0118,0.0099,0.0085,0.0082,0.0085,0.0076,0.006,0.0079,0.0067,0.0067,0.0067,0.0046,0.0043,0.0069,0.0069,0.0069,0.0069,0,0.0118,0.0134,0.0143,0.0157,0.0161,0.0175,0.0172,0.0175,0.0167,0.0162,0.0157,0.0134,0.0123,0.0115,0.0104,0.0097,0.0086,0.0073,0.0062,0.0069,0.0047,0.0044,0.0072,0.0071,0.0071,0.007,0,0,0.0134,0.0158,0.0162,0.0176,0.0183,0.0193,0.0203,0.0209,0.0218,0.0202,0.0208,0.0186,0.0169,0.016,0.0139,0.0119,0.01,0.0099,0.0097,0.0082,0.0051,0.0048,0.0044,0.0085,0.0085,0.0084,0.0037,0,0.0157,0.0193,0.0198,0.0229,0.0247,0.0242,0.0255,0.0257,0.025,0.025,0.022,0.0216,0.0187,0.0183,0.0157,0.0118,0.0094,0.0115,0.0044,0.0042,0.004,0.0041,0.0083,0.0034,0.0033,0.0033,0.0033,0,0.0184,0.0206,0.0244,0.0272,0.0279,0.0295,0.0311,0.0324,0.0316,0.0311,0.0293,0.0267,0.024,0.0211,0.0143,0.0159,0.011,0.0073,0.007,0.0055,0.0033,0.0024,0.0027,0.0027,0.0028,0.0028,0.0028,0,0.02,0.0238,0.027,0.0281,0.0309,0.0326,0.0339,0.0342,0.036,0.035,0.0354,0.031,0.0296,0.0228,0.0153,0.0148,0.0074,0.0055,0.0003,0.0001,0.0005,0.0006,0.0002,0.0002,0.0002,0.0002,0.0002,0,0.0223,0.0251,0.0283,0.0303,0.0346,0.0354,0.0393,0.0398,0.041,0.0433,0.0389,0.039,0.03,0.0246,0.0167,0.0081,0.0082,0.0009,-0.001,0.0019,0.0022,0.0003,0.0004,0.0,0.0,0.0001,0.0001,0,0.0236,0.0258,0.03,0.0339,0.0357,0.0388,0.0436,0.046,0.0467,0.0494,0.0495,0.0452,0.0384,0.0287,0.0179,0.0108,0.002,-0.0014,0.0032,0.0016,-0.0043,-0.004,-0.0078,-0.0078,-0.0079,-0.0079,-0.0079,0,0.0245,0.0269,0.0327,0.0357,0.038,0.0428,0.0464,0.0489,0.0517,0.0533,0.0546,0.0494,0.0451,0.0303,0.0192,0.0041,0.0014,-0.0036,-0.0048,-0.0036,-0.0051,-0.0047,-0.0044,-0.008,-0.008,-0.008,-0.008,0,0.0261,0.0283,0.0317,0.038,0.0426,0.0482,0.0533,0.0558,0.059,0.0596,0.0593,0.0516,0.0438,0.0313,0.0197,0.0085,-0.0006,-0.0042,-0.0042,-0.0054,-0.0039,-0.0053,-0.0049,-0.0082,-0.0082,-0.0082,-0.0082,0,0.0271,0.0296,0.0342,0.04,0.0459,0.0519,0.0546,0.0584,0.0614,0.063,0.0628,0.0544,0.0497,0.0336,0.023,0.0121,0.0083,0.0037,0.0032,0.0032,0.0073,0.0108,0.0098,0,0,0,0,0,0.0277,0.0307,0.0358,0.0422,0.0482,0.0521,0.0585,0.0608,0.0639,0.0644,0.064,0.0569,0.0417,0.0353,0.0244,0.0202,0.0052,0.0067,-0.0007,-0.009,-0.0089,-0.006,0,0,0,0,0,0,0.0283,0.0325,0.0354,0.0432,0.0478,0.0548,0.0592,0.0615,0.062,0.0634,0.056,0.053,0.0384,0.0482,0.0239,0.0206,0.014,0.0001,-0.0002,-0.0091,-0.009,-0.0088,-0.0058,0,0,0,0,0]}]]